Home   Weather   Cedar Rapids   Past weeks

Flag for USA Past Weather in Cedar Rapids, Iowa, USA — Yesterday and Last 2 Weeks

Now
48 °F

Clear.


Feels Like: 44 °F
Forecast: 42 / 68 °F
Wind: 8 mph from South

Location: Cedar Rapids Municipal Airport

Current Time: Feb 21, 2017 at 10:11:10 pm

Latest Report: Feb 21, 2017 at 8:52 pm


Visibility: 10 mi

Pressure: 29.83 "Hg

Humidity: 66%

Dew Point: 37 °F

Location of Cedar RapidsLocation

Past Weather in Cedar Rapids — Graph

°F

Cedar Rapids Temperature Yesterday

Maximum temperature yesterday: 60 °F (at 11:52 am)
Minimum temperature yesterday: 51 °F (at 3:52 am)
Average temperature yesterday: 55 °F

High & Low Weather Summary for the Past Weeks

 TemperatureHumidityPressure
High71 °F (Feb 17, 2:52 pm)100% (Feb 6, 9:52 pm)30.45 "Hg (Feb 6, 9:52 pm)
Low4 °F (Feb 9, 5:52 am)31% (Feb 17, 2:52 pm)29.39 "Hg (Feb 7, 4:52 am)
Average37 °F79%29.91 "Hg
* Reported Feb 6 8:52 pm — Feb 21 8:52 pm, Cedar Rapids, Weather by CustomWeather, © 2017

Note: Actual official high and low records may vary slightly from our data, if they occured in-between our weather recording intervals... More about our weather records

Advertising

Cedar Rapids Weather History for the Previous 24 Hours

Scroll right to see more
 ConditionsComfort  
Time TempWeatherWind HumidityBarometerVisibility
8:52 pm
Tue, Feb 21
48 °FClear.8 mph66%29.83 "Hg10 mi
7:52 pm49 °FClear.6 mph66%29.85 "Hg10 mi
6:52 pm51 °FClear.5 mph66%29.86 "Hg10 mi
5:52 pm56 °FClear.5 mph58%29.87 "Hg10 mi
4:52 pm62 °FSunny.5 mph46%29.88 "Hg10 mi
3:52 pm61 °FSunny.6 mph54%29.89 "Hg10 mi
2:52 pm63 °FSunny.6 mph47%29.90 "Hg10 mi
2:00 pm62 °FSunny.N/A46%29.90 "Hg10 mi
12:52 pm58 °FSunny.5 mph60%29.92 "Hg10 mi
11:52 am56 °FSunny.5 mph72%29.96 "Hg10 mi
10:52 am50 °FSunny.3 mph89%29.96 "Hg10 mi
9:52 am46 °FSunny.No wind96%29.96 "Hg7 mi
8:52 am41 °FSunny.No wind100%29.98 "Hg5 mi
7:52 am34 °FFog.No wind100%29.95 "Hg6 mi
7:17 am37 °FFog.3 mph100%29.95 "Hg10 mi
6:59 am35 °FFog.No wind100%29.95 "Hg0 mi
5:52 am37 °FClear.6 mph100%29.94 "Hg10 mi
4:52 am39 °FClear.5 mph100%29.95 "Hg10 mi
3:52 am42 °FClear.10 mph100%29.94 "Hg7 mi
2:52 am45 °FClear.8 mph100%29.92 "Hg9 mi
1:52 am48 °FClear.9 mph96%29.91 "Hg10 mi
12:52 am50 °FPassing clouds.10 mph93%29.89 "Hg10 mi
12:20 am52 °FLow clouds.13 mph100%29.89 "Hg9 mi
12:04 am54 °FFog.9 mph100%29.89 "Hg5 mi
11:44 pm
Mon, Feb 20
53 °FFog.5 mph100%29.88 "Hg1 mi
11:30 pm53 °FFog.5 mph100%29.87 "Hg1 mi
11:21 pm53 °FLight rain. Fog.3 mph100%29.87 "Hg1 mi
11:07 pm54 °FLight rain. Fog.6 mph100%29.87 "Hg3 mi
10:59 pm54 °FLight rain. Fog.6 mph100%29.87 "Hg2 mi
Weather by CustomWeather, © 2017

See weather overviewHow to use our weather pages